This is the latest recevied weather packets stored in our database for station/object F5ZMN-13. If no packets are shown the sender has not sent any weather packets the latest 10 day(s).
| Time | Temp. | Humidity | Pressure | Rain* | Wind** | Luminosity | Snow |
|---|---|---|---|---|---|---|---|
| 1787874034 | 25° C | 57% | 1015.9 hPa | - | - | - | - |
| 1787873419 | 25° C | 58% | 1015.7 hPa | - | - | - | - |
| 1787872804 | 25° C | 58% | 1015.6 hPa | - | - | - | - |
| 1787872189 | 25° C | 58% | 1015.6 hPa | - | - | - | - |
| 1787871574 | 25° C | 59% | 1015.5 hPa | - | - | - | - |
| 1787870960 | 25° C | 59% | 1015.4 hPa | - | - | - | - |
| 1787870344 | 25° C | 59% | 1015.2 hPa | - | - | - | - |
| 1787869729 | 25° C | 59% | 1015.1 hPa | - | - | - | - |
| 1787869114 | 25° C | 59% | 1014.7 hPa | - | - | - | - |
| 1787868499 | 25° C | 59% | 1014.7 hPa | - | - | - | - |
| 1787867884 | 25° C | 59% | 1014.6 hPa | - | - | - | - |
| 1787867269 | 25° C | 60% | 1014.6 hPa | - | - | - | - |
| 1787866654 | 25° C | 60% | 1014.5 hPa | - | - | - | - |
| 1787866038 | 25.56° C | 60% | 1014.4 hPa | - | - | - | - |
| 1787865423 | 25.56° C | 60% | 1014.3 hPa | - | - | - | - |
| 1787864808 | 25.56° C | 61% | 1014.2 hPa | - | - | - | - |
| 1787864193 | 25.56° C | 60% | 1014.2 hPa | - | - | - | - |
| 1787863578 | 25.56° C | 61% | 1014.1 hPa | - | - | - | - |
| 1787862963 | 25.56° C | 62% | 1014 hPa | - | - | - | - |
| 1787862348 | 25.56° C | 63% | 1013.9 hPa | - | - | - | - |
| 1787861733 | 25.56° C | 64% | 1013.6 hPa | - | - | - | - |
| 1787861118 | 25° C | 66% | 1013.3 hPa | - | - | - | - |
| 1787860503 | 25° C | 60% | 1013.1 hPa | - | - | - | - |
| 1787859888 | 25.56° C | 67% | 1012.9 hPa | - | - | - | - |
| 1787859273 | 25° C | 66% | 1012.6 hPa | - | - | - | - |
* Rain since midnight (hover to see other rain measurements)
** Current wind speed in m/s (hover to see current wind gust speed)